Terminal Aerodrome Forecast
Issued by NWS

Home | Current Version | Previous Version | Text Only | Print | Product List | Glossary On
Versions: 1 2 3 4 5 6 7 8 9 10 11 12 13 14 15 16 17 18 19 20 21 22 23 24 25 26 27 28 29 30 31 32 33 34 35 36 37 38 39 40 41 42 43 44 45 46 47 48 49 50
000
FTUS46 KPQR 291742
TAFONP
TAF
KONP 291742Z 2918/3018 00000KT P6SM OVC007
     FM291800 25006KT 5SM BR OVC009
     FM300200 33006KT P6SM OVC015
     FM300900 00000KT 1SM BR OVC004
     FM301600 VRB05KT P6SM OVC010=

USA.gov is the U.S. government's official web portal to all federal, state and local government web resources and services.